Tracking 31027 objects as of 19-Jul-2025
HD Live streaming from Space Station
objects crossing your sky now

NOAA 17 DEB

Track NOAA 17 DEB now!
10-day predictions


NORAD ID: 48724
Int'l Code: 2002-032BJ
Perigee: 660.8 km
Apogee: 696.3 km
Inclination: 98.8 °
Period: 98.2 minutes
Semi major axis: 7049 km
RCS: Unknown
Launch date: June 24, 2002
Source: United States (US)
Launch site: AIR FORCE WESTERN TEST RANGE (AFWTR)

Note: This is SATELLITE DEBRIS
Your satellite tracking list
FLOCK 4V 13
Track 1 satellite(s)




NASA's NSSDC Master Catalog

Two Line Element Set (TLE):
1 48724U 02032BH  25198.86013322  .00008035  00000-0  14434-2 0  9996
2 48724  98.7690 212.1764 0025153 262.0650  97.7697 14.66764666228634
Source of the keplerian elements: AFSPC